Regional Weather Roundup
Issued by NWS Binghamton, NY

Home | Current Version | Previous Version | Text Only | Print | Product List | Glossary On
Versions: 1 2 3 4 5 6 7 8 9 10 11 12 13 14 15 16 17 18 19 20 21 22 23 24 25 26 27 28 29 30 31 32 33 34 35 36 37 38 39 40 41 42 43 44 45 46 47 48 49 50
000
ASUS41 KBGM 231710
RWRBGM

REGIONAL WEATHER ROUNDUP
NATIONAL WEATHER SERVICE BINGHAMTON NY
100 PM EDT WED AUG 23 2017

Note: "fair" indicates few or no clouds below 12,000 feet with no
significant weather and/or obstructions to visibility.

* = Station(s) that does not report precipitation, such as rain,
snow, etc, also no thunder or fog.

NYZ009-015>018-022>025-036-037-044>046-055>057-062-231800
...Central New York...

CITY           SKY/WX    TMP DP  RH WIND       PRES   REMARKS
Binghamton     PTSUNNY   67  51  56 NW7G17    29.90S
Cortland       FAIR      68  50  52 W7G17     29.89S
Dansville      MOSUNNY   73  48  41 W9G21     29.89F
Elmira         PTSUNNY   74  40  29 W9G17     29.89S
Seneca Falls   PTSUNNY   72  52  49 NW7G17    29.88S
Ithaca         MOSUNNY   71  52  50 NW12      29.89F
Hamilton       MOSUNNY   72  48  43 NW8       29.87F
Hornell        MOSUNNY   70  48  46 W10G23    29.94S
Monticello     MOSUNNY   71  54  54 NW6       29.91S
Oneonta        SUNNY     66 N/A N/A W7        29.89S
Penn Yan       MOSUNNY   72  47  40 W6        29.90S
Rome           PTSUNNY   69  54  58 W16G22    29.85R
Sidney         PTSUNNY   73  54  49 W8        29.88S
Syracuse       MOSUNNY   71  54  54 W13G21    29.85F
$$

PAZ038>040-043-044-047-048-072-231800
...Northeast Pennsylvania...

CITY           SKY/WX    TMP DP  RH WIND       PRES   REMARKS
Hazleton         N/A     75  52  43 NW7G17    29.95S
Scranton       PTSUNNY   75  56  51 NW7       29.90S
$$
&&
KEY
WCI = Wind Chill Index
VSB = Visibility
HX  = Heat Index
$$



USA.gov is the U.S. government's official web portal to all federal, state and local government web resources and services.